Location: *
(28.3744°N, 81.5492°W)
Time: 03:28:50
(UTC+00:00)

Centaur AC-112 - Pass Details

Date: 15 June 2025
Orbit: 298 x 18157 km, 26.6° (Epoch: 11 July)

Event Time Altitude Azimuth Distance (km) Brightness Sun altitude
Rises 08:46:59 0° 271° (W) 9,895 8.2 -19.3°
Reaches altitude 10° 08:57:23 10° 271° (W) 6,126 7.2 -17.6°
Maximum altitude 09:10:10 74° 188° (S) 910 3.2 -15.4°
Drops below altitude 10° 09:13:30 10° 103° (ESE) 1,717 5.4 -14.8°
Sets 09:14:49 0° 101° (E) 2,330 6.2 -14.6°
